Regional Weather Roundup
Issued by NWS

Home | Current Version | Previous Version | Text Only | Print | Product List | Glossary Off
Versions: 1 2 3 4 5 6 7 8 9 10 11 12 13 14 15 16 17 18 19 20 21 22 23 24 25 26 27 28 29 30 31 32 33 34 35 36 37 38 39 40 41 42 43 44 45 46 47 48 49 50

000
ASUS43 KLOT 190709
RWRIL

ILLINOIS REGIONAL WEATHER ROUNDUP
NATIONAL WEATHER SERVICE CHICAGO/ROMEOVILLE IL
200 AM CDT THU OCT 19 2017

NOTE: "FAIR" INDICATES FEW OR NO CLOUDS BELOW 12,000 FEET WITH NO
SIGNIFICANT WEATHER AND/OR OBSTRUCTIONS TO VISIBILITY.

* THESE STATIONS ARE NOT UNDER NWS QUALITY CONTROL. THEY ALSO MAY NOT
  REPORT WEATHER SUCH AS PRECIPITATION OR FOG.

ILZ001-002-007-009-015-016-024-190800-
NORTHWEST ILLINOIS

CITY           SKY/WX    TMP DP  RH WIND       PRES   REMARKS
MOLINE         CLEAR     57  44  62 W3        30.04R
STERLING*      CLEAR     51  45  79 CALM        N/A
SAVANNA*       CLEAR     55  46  69 SW5       30.03S
$$

ILZ003-004-008-010-011-017-018-190800-
NORTH CENTRAL ILLINOIS

CITY           SKY/WX    TMP DP  RH WIND       PRES   REMARKS
ROCKFORD       CLEAR     54  44  69 SW8       30.04S
FREEPORT*      CLEAR     52  44  73 SW8       30.04R
ROCHELLE*      CLEAR     51  45  79 CALM      30.05R
DE KALB*       CLEAR     46  44  91 S7        30.04S
PERU*          CLEAR     52  46  78 SW9       30.05S
$$

ILZ005-006-012>014-019>023-190800-
NORTHEAST ILLINOIS

CITY           SKY/WX    TMP DP  RH WIND       PRES   REMARKS
CHICAGO-OHARE  PTCLDY    59  45  59 SW12      30.03R
CHICAGO-MIDWAY CLEAR     58  47  66 SW14      30.04S
AURORA         CLEAR     53  46  77 S8        30.05R
LANSING*       CLEAR     52  47  84 SW7       30.06S
JOLIET*        CLEAR     53  47  81 S5        30.06S
WAUKEGAN       CLEAR     57  45  64 SW9       30.00R
DUPAGE AIRPORT CLEAR     55  47  74 SW10      30.03S
KANKAKEE*      CLEAR     53  46  76 SW7       30.09R
WHEELING       CLEAR     60  46  59 SW8       30.03S
MORRIS*        CLEAR     49  45  84 S5        30.05S
NORTHERLY ISL    N/A     59  45  59 W7          N/A
$$

LMZ740>746-190800-
SOUTHERN LAKE MICHIGAN

STATION/POSITION SKY/WX   TEMP    WIND        PRES    VSBY  WAVE
                          AIR SEA DIR/SP/G                  HT/PER
                          (F)     (DEG/KT/KT) (MB)    (MI)  (FT/S)
SOUTHERN BUOY              62 61  240/ 17/ 21 1015.5          4/ 5
WILMETTE HARBOR            61 57  230/ 14/ 19   N/A           2/ 3
HARRISON CRIB              62     220/ 19/ 23   N/A
BURNHAM HARBOR             59     210/  5/ 10   N/A
CALUMET HARBOR                    210/  8/ 12 1016.5F
BURNS HARBOR               58     200/ 14/ 20 1017.9F
MICHIGAN CITY              58     190/ 11/ 14   N/A
MICHIGAN CITY 6N           59 58  220/ 16/ 19   N/A           3/ 3
ST. JOSEPH                 59 58  220/ 16/ 19 1017.9          3/ 4
$$

ILZ025>027-034>036-040-047-049-050-058-095>099-190800-
WEST-CENTRAL ILLINOIS

CITY           SKY/WX    TMP DP  RH WIND       PRES   REMARKS
QUINCY         CLEAR     54  45  71 S8        30.08S
GALESBURG*     CLEAR     50  45  81 S6        30.06S
MACOMB*        CLEAR     52  45  75 SW3       30.08S
JACKSONVILLE*  CLEAR     57  47  70 S8        30.09F
PITTSFIELD*    CLEAR     55  47  73 S3        30.10S
$$

ILZ028>032-037-038-041>044-048-051>054-059>061-190800-
CENTRAL ILLINOIS

CITY           SKY/WX    TMP DP  RH WIND       PRES   REMARKS
PONTIAC        CLEAR     56  50  81 SW9       30.08S
BLOOMINGTON    CLEAR     56  47  71 SW13      30.10S
DECATUR        CLEAR     54  48  80 SW9       30.12S
PEORIA         CLEAR     53  47  79 S6        30.07F
LACON*         CLEAR     56  48  74 SW6       30.05S
LINCOLN*       CLEAR     53  49  86 S6        30.09F
SPRINGFIELD    CLEAR     56  49  77 S6        30.10F
TAYLORVILLE    CLEAR     53  47  80 S7        30.12S
$$

ILZ033-039-045-046-055>057-062-063-190800-
EAST-CENTRAL ILLINOIS

CITY           SKY/WX    TMP DP  RH WIND       PRES   REMARKS
CHAMPAIGN      CLEAR     51  45  79 S9        30.12S
DANVILLE*      CLEAR     52  46  77 SW8       30.11R
RANTOUL*       CLEAR     51  47  87 S5        30.11S
MATTOON        CLEAR     54  48  80 S7        30.13S
PARIS*         CLEAR     55  48  79 SW10      30.15S
$$

ILZ079-100>102-190800-
SOUTHWEST ILLINOIS

CITY           SKY/WX    TMP DP  RH WIND       PRES   REMARKS
ALTON          PTCLDY    51  48  89 CALM      30.13S
BELLEVILLE     CLEAR     51  47  86 CALM      30.17R
CAHOKIA*       CLEAR     54  46  74 S5        30.13S
SPARTA*        CLEAR     58  48  67 S6        30.15R
$$

ILZ064>066-069>071-074>076-080>082-084>086-088>090-092>094-190800-
SOUTH-CENTRAL ILLINOIS

CITY           SKY/WX    TMP DP  RH WIND       PRES   REMARKS
CARBONDALE     CLEAR     52  48  86 S7        30.16R
CAIRO*         PTCLDY    55  48  79 S6        30.19R
EFFINGHAM*     CLEAR     51  47  86 SE3       30.17S
MARION         CLEAR     55  49  79 S6        30.17S
MT. VERNON     CLEAR     53  48  83 CALM      30.17R
CENTRALIA*     CLEAR     54  48  82 S5        30.15R
SALEM*         CLEAR     57  48  71 S3        30.16R
METROPOLIS*    CLOUDY    54  47  78 S5        30.19S
$$

ILZ067-068-072-073-078-083-087-091-190800-
SOUTHEAST ILLINOIS

CITY           SKY/WX    TMP DP  RH WIND       PRES   REMARKS
LAWRENCEVILLE  CLEAR     50  45  83 S5        30.18R
FLORA*         CLEAR     49  46  90 S3        30.17S
FAIRFIELD*     CLEAR     54  47  79 CALM      30.16S
HARRISBURG*    CLEAR     53  48  82 CALM      30.17S
ROBINSON*      CLEAR     46  44  93 S3        30.18S
CARMI*         CLEAR     49  47  92 S3        30.18R
$$

ABBREVIATIONS USED IN REMARKS
   TC - TEMPERATURE IN CELSIUS
  WCI - WIND CHILL INDEX
   HX - HEAT INDEX
  VSB - VISIBILITY
$$





USA.gov is the U.S. government's official web portal to all federal, state and local government web resources and services.